Location: ????????
(55.3155°N, 39.2900°E)
Time: 19:03:27
(UTC+00:00)

ACS3 Solar Sail - Pass Details

Date: 17 November 2025
Orbit: 889 x 1003 km, 97.3° (Epoch: 06 December)

Event Time Altitude Azimuth Distance (km) Brightness Sun altitude
Rises 01:06:07 0° 13° (NNE) 3,556 5.1 -32.7°
Reaches altitude 10° 01:08:30 10° 13° (NNE) 2,624 4.3 -32.4°
Enters shadow 01:12:32 47° 10° (N) 1,224 2.3 -31.8°
